Location: Newark
(37.8333°N, 119.5000°W)
Time: 11:52:19
(UTC+00:00)

Tiros 1 despin weight - Pass Details

Date: 31 August 2019
Orbit: 594 x 642 km, 48.2° (Epoch: 21 September)

Event Time Altitude Azimuth Distance (km) Brightness Sun altitude
Rises 04:04:32 0° 241° (WSW) 2,819 ? -18.3°
Reaches altitude 10° 04:06:50 10° 243° (WSW) 1,919 ? -18.7°
Maximum altitude 04:11:13 72° 328° (NNW) 625 ? -19.5°
Enters shadow 04:14:16 20° 51° (NE) 1,409 ? -20.0°
